DH2PG-6 Weather Reports


time (UTC)temp
C
wind
direction
speed
KPH
gust
KPH
rain 1hr
cm
rain 24hr
cm
rain mn
cm
humidity
%
barometer
mb
20260506133651 8 315 0.0 0.0 0.00 1.02 0.00 90 1003.9
20260506133150 8 315 0.0 0.0 0.00 1.02 0.00 90 1003.8
20260506132650 8 315 0.0 0.0 0.00 1.02 0.00 90 1003.8
20260506132150 8 315 0.0 0.0 0.00 1.02 0.00 90 1003.8
20260506131650 8 315 0.0 0.0 0.00 1.02 0.00 90 1003.8
20260506131149 9 315 0.0 0.0 0.00 1.02 0.00 90 1003.8
20260506130649 9 292 0.0 0.0 0.00 1.02 0.00 90 1003.8
20260506130149 9 315 0.0 0.0 0.00 1.02 0.00 90 1003.8
20260506125148 9 315 0.0 0.0 0.00 1.50 0.00 90 1003.6
20260506124148 9 337 0.0 0.0 0.00 1.50 0.00 90 1003.5
20260506123647 9 337 0.0 0.0 0.00 1.50 0.00 90 1003.6
20260506122647 9 337 0.0 0.0 0.00 1.50 0.00 90 1003.3
20260506122146 9 315 0.0 0.0 0.00 1.50 0.00 90 1003.3
20260506121646 9 315 0.0 0.0 0.00 1.50 0.00 90 1003.3
20260506121146 9 337 0.0 0.0 0.00 1.50 0.00 89 1003.3
20260506120646 9 292 0.0 0.0 0.00 1.50 0.00 89 1003.4
20260506120145 9 337 0.0 0.0 0.00 1.50 0.00 89 1003.3
20260506115912 9 337 0.0 0.0 0.00 1.55 0.00 89 1003.3
20260506115645 9 337 0.0 0.0 0.00 1.55 0.00 89 1003.3
20260506115145 9 315 0.0 0.0 0.00 1.55 0.00 88 1003.2
20260506114645 10 337 0.0 0.0 0.00 1.55 0.00 89 1003.2
20260506114144 10 292 0.0 0.0 0.00 1.55 0.00 89 1003.3
20260506113644 10 337 0.0 0.0 0.00 1.55 0.00 89 1003.2
20260506113144 10 337 0.0 0.0 0.00 1.55 0.00 89 1003.2
20260506112643 9 337 0.0 0.0 0.00 1.55 0.00 89 1003.2
20260506112143 9 337 0.0 0.0 0.00 1.55 0.00 89 1003.2
20260506111643 10 337 0.0 0.0 0.00 1.55 0.00 88 1003.1
20260506111143 10 315 0.0 0.0 0.00 1.55 0.00 89 1002.9
20260506110642 10 315 0.0 0.0 0.00 1.55 0.00 89 1003.0
20260506110142 10 315 0.0 0.0 0.00 1.55 0.00 89 1003.1
20260506105141 9 0 0.0 0.0 0.00 1.55 0.00 90 1003.0
20260506104141 9 337 0.0 0.0 0.00 1.55 0.00 90 1002.8
20260506103641 9 315 0.0 0.0 0.00 1.55 0.00 90 1002.9
20260506103140 9 315 0.0 0.0 0.00 1.55 0.00 90 1003.0
20260506102640 9 0 0.0 0.0 0.00 1.55 0.00 90 1003.0
20260506102140 9 337 0.0 0.0 0.00 1.55 0.00 90 1002.9
20260506101639 9 315 0.0 0.0 0.00 1.55 0.00 90 1002.9
20260506101139 9 337 0.0 0.0 0.00 1.55 0.00 90 1002.8
20260506100639 9 292 0.0 0.0 0.00 1.55 0.00 90 1002.7
20260506100139 10 0 0.0 0.0 0.00 1.55 0.00 90 1002.7
20260506095638 10 337 0.0 0.0 0.00 1.55 0.00 90 1002.7
20260506095138 10 22 0.0 0.0 0.00 1.55 0.00 89 1002.6
20260506094638 10 337 0.0 0.0 0.00 1.55 0.00 89 1002.5
20260506094138 10 315 0.0 0.0 0.00 1.55 0.00 90 1002.5
20260506093637 10 0 0.0 0.0 0.00 1.55 0.00 90 1002.4
20260506093137 10 337 0.0 0.0 0.00 1.55 0.00 90 1002.3
20260506092637 10 270 0.0 0.0 0.00 1.55 0.00 91 1002.4
20260506092136 10 315 0.0 0.0 0.00 1.55 0.00 90 1002.3
20260506091636 10 292 0.0 0.0 0.00 1.55 0.00 91 1002.3
20260506091136 10 292 0.0 0.0 0.00 1.55 0.00 91 1002.2
20260506090636 10 315 0.0 0.0 0.00 1.55 0.00 90 1002.2
20260506090135 10 337 0.0 0.0 0.00 1.55 0.00 90 1002.1
20260506085635 10 337 0.0 0.0 0.05 1.55 0.00 90 1002.1
20260506085135 10 315 0.0 0.0 0.05 1.55 0.00 91 1002.2
20260506084634 10 0 0.0 0.0 0.05 1.55 0.00 91 1002.1
20260506083634 10 0 0.0 0.0 0.05 1.55 0.00 91 1002.1
20260506083134 10 337 0.0 0.0 0.05 1.55 0.00 91 1002.1
20260506082633 9 337 0.0 0.0 0.05 1.55 0.00 91 1002.1
20260506082133 9 315 0.0 0.0 0.05 1.55 0.00 91 1002.1
20260506081633 9 337 0.0 0.0 0.05 1.55 0.00 91 1002.1
20260506081132 9 0 0.0 0.0 0.05 1.55 0.00 91 1002.1
20260506080132 9 0 0.0 0.0 0.00 1.50 0.00 91 1002.1
20260506073130 9 337 0.0 0.0 0.00 1.50 0.00 91 1001.9
20260506072630 9 0 0.0 0.0 0.00 1.50 0.00 91 1001.8
20260506072130 9 315 0.0 0.0 0.00 1.50 0.00 91 1001.9
20260506071629 9 0 0.0 0.0 0.00 1.50 0.00 91 1001.8
20260506071129 9 315 0.0 0.0 0.00 1.50 0.00 91 1001.8
20260506070629 8 337 0.0 0.0 0.00 1.50 0.00 91 1001.7
20260506070128 8 337 0.0 0.0 0.00 1.50 0.00 91 1001.7
20260506062126 8 292 0.0 0.0 0.00 1.50 0.00 91 1001.5
20260506061626 8 337 0.0 0.0 0.00 1.50 0.00 91 1001.4
20260506061126 8 292 0.0 0.0 0.00 1.50 0.00 91 1001.4
20260506060625 8 292 0.0 0.0 0.00 1.50 0.00 91 1001.3
20260506060125 9 270 0.0 0.0 0.00 1.50 0.00 91 1001.2
20260506051122 10 247 0.0 0.0 0.00 1.50 0.00 91 1001.2
20260506050622 10 225 0.0 0.0 0.00 1.50 0.00 91 1001.1
20260506050122 10 225 0.0 0.0 0.00 1.50 0.00 91 1001.0
20260506045121 10 247 0.0 0.0 0.00 1.50 0.00 91 1001.1
20260506044621 10 180 0.0 0.0 0.00 1.50 0.00 91 1001.1
20260506044121 10 157 0.0 0.0 0.00 1.50 0.00 91 1001.1
20260506043120 10 180 0.0 0.0 0.00 1.50 0.00 91 1001.1
20260506042119 10 180 0.0 0.0 0.00 1.50 0.00 91 1001.2
20260506041619 10 157 0.0 0.0 0.00 1.50 0.00 91 1001.1
20260506041119 10 180 0.0 0.0 0.00 1.50 0.00 91 1001.1
20260506040619 10 180 0.0 0.0 0.00 1.50 0.00 91 1001.2
20260506040118 10 157 0.0 0.0 0.00 1.50 0.00 91 1001.2
20260506035118 10 180 0.0 0.0 0.00 1.50 0.00 91 1001.2
20260506034618 10 180 0.0 0.0 0.00 1.50 0.00 91 1001.3
20260506034117 10 202 0.0 0.0 0.00 1.50 0.00 91 1001.3
20260506033617 10 157 0.0 0.0 0.00 1.50 0.00 91 1001.3
20260506033117 10 180 0.0 0.0 0.00 1.50 0.00 91 1001.4
20260506032616 10 157 0.0 0.0 0.00 1.50 0.00 91 1001.3
20260506032116 10 157 0.0 0.0 0.00 1.50 0.00 91 1001.4
20260506031616 10 180 0.0 0.0 0.00 1.50 0.00 91 1001.4
20260506031116 10 157 0.0 0.0 0.00 1.50 0.00 91 1001.3
20260506030615 10 180 0.0 0.0 0.00 1.50 0.00 91 1001.5
20260506030115 10 157 0.0 0.0 0.00 1.50 0.00 91 1001.6
20260506025615 10 157 0.0 0.0 0.00 1.50 0.00 91 1001.6
20260506025114 10 180 0.0 0.0 0.05 1.50 0.00 91 1001.7
20260506024620 10 157 0.0 0.0 0.05 1.50 0.00 91 1001.7
20260506024614 10 157 0.0 0.0 0.05 1.50 0.00 91 1001.7
20260506024114 10 157 0.0 0.0 0.10 1.50 0.00 91 1001.8
20260506023614 10 157 0.0 0.0 0.10 1.50 0.00 91 1001.7
20260506023113 10 180 0.0 0.0 0.10 1.50 0.00 91 1001.9
20260506022613 10 180 0.0 0.0 0.10 1.50 0.00 91 1001.7
20260506022113 10 157 0.0 0.0 0.10 1.50 0.00 91 1001.7
20260506021612 10 247 0.0 0.0 0.10 1.50 0.00 91 1001.8
20260506021112 10 157 0.0 0.0 0.10 1.50 0.00 91 1001.9
20260506020612 10 157 0.0 0.0 0.10 1.50 0.00 91 1001.9
20260506020235 10 157 0.0 0.0 0.10 1.50 0.00 91 1002.0
20260506020112 10 157 0.0 0.0 0.10 1.50 0.00 91 1002.0
20260506015611 10 157 0.0 0.0 0.15 1.50 0.00 91 1002.0
20260506015111 10 157 0.0 0.0 0.10 1.45 0.00 91 1002.1
20260506014611 10 157 0.0 0.0 0.10 1.40 0.00 91 1002.1
20260506014111 10 157 0.0 0.0 0.15 1.40 0.00 91 1002.1
20260506013610 10 135 0.0 0.0 0.20 1.40 0.00 91 1002.2
20260506013110 10 135 0.0 0.0 0.20 1.40 0.00 91 1002.2
20260506012615 10 135 0.0 0.0 0.20 1.40 0.00 91 1002.1
20260506012610 10 135 0.0 0.0 0.20 1.40 0.00 91 1002.1
20260506012109 10 135 0.0 0.0 0.20 1.40 0.00 91 1002.3
20260506011609 10 135 0.0 0.0 0.20 1.40 0.00 91 1002.2
20260506011109 10 90 0.0 0.0 0.20 1.40 0.00 91 1002.3
20260506010609 10 67 0.0 0.0 0.20 1.40 0.00 91 1002.4
20260506005608 10 67 0.0 0.0 0.20 1.32 0.00 91 1002.2
20260506005108 10 67 0.0 0.0 0.20 1.32 0.00 91 1002.4
20260506004607 10 67 0.0 0.0 0.15 1.27 0.00 91 1002.5
20260506004107 10 67 0.0 0.0 0.05 1.17 0.00 91 1002.4
20260506003607 10 67 0.0 0.0 0.05 1.17 0.00 91 1002.6
20260506003107 10 67 0.0 0.0 0.05 1.17 0.00 91 1002.6
20260506002606 10 67 0.0 0.0 0.05 1.17 0.00 91 1002.6
20260506002106 10 67 0.0 0.0 0.05 1.17 0.00 91 1002.7
20260506001606 10 67 0.0 0.0 0.05 1.17 0.00 91 1002.7
20260506001105 10 67 0.0 0.0 0.05 1.17 0.00 91 1002.8
20260506000605 10 67 0.0 0.0 0.05 1.17 0.00 91 1002.7
20260506000110 10 67 0.0 0.0 0.05 1.17 0.00 91 1002.9
20260506000105 10 67 0.0 0.0 0.05 1.17 0.00 91 1002.9
20260505235104 10 67 0.0 0.0 0.00 1.12 0.00 91 1002.9
20260505234604 10 67 0.0 0.0 0.00 1.12 0.00 91 1003.0
20260505234104 10 67 0.0 0.0 0.00 1.12 0.00 91 1002.9
20260505233603 10 67 0.0 0.0 0.05 1.12 0.00 91 1002.9
20260505233103 10 67 0.0 0.0 0.05 1.12 0.00 91 1002.8
20260505232603 10 67 0.0 0.0 0.05 1.12 0.00 90 1002.9
20260505232103 10 67 0.0 0.0 0.05 1.12 0.00 91 1002.9
20260505231602 10 67 0.0 0.0 0.05 1.12 0.00 91 1002.9
20260505231102 10 67 0.0 0.0 0.05 1.12 0.00 90 1002.9
20260505230602 10 67 0.0 0.0 0.05 1.12 0.00 90 1003.0
20260505225601 10 67 0.0 0.0 0.05 1.12 0.00 90 1003.3
20260505225101 10 67 0.0 0.0 0.05 1.12 0.00 90 1003.3
20260505224601 10 67 0.0 0.0 0.05 1.12 0.00 90 1003.4
20260505224100 10 67 0.0 0.0 0.05 1.12 0.00 90 1003.4
20260505223600 10 67 0.0 0.0 0.00 1.07 0.00 90 1003.4
20260505223100 10 67 0.0 0.0 0.00 1.07 0.00 90 1003.5
20260505222600 10 67 0.0 0.0 0.05 1.07 0.00 90 1003.3
20260505221559 10 67 0.0 0.0 0.05 1.07 0.00 90 1003.3
20260505220558 10 67 0.0 0.0 0.05 1.07 0.00 90 1003.4
20260505220058 10 67 0.0 0.0 0.05 1.07 0.00 90 1003.5
20260505215558 10 67 0.0 0.0 0.05 1.07 0.00 90 1003.3
20260505215058 10 67 0.0 0.0 0.05 1.07 0.00 90 1003.3
20260505214557 10 67 0.0 0.0 0.05 1.07 0.00 90 1003.4
20260505214057 10 67 0.0 0.0 0.10 1.07 0.00 90 1003.4
20260505213557 10 67 0.0 0.0 0.10 1.07 0.00 90 1003.5
20260505213056 10 67 0.0 0.0 0.10 1.07 0.00 89 1003.5
20260505212556 11 112 0.0 0.0 0.05 1.02 0.00 89 1003.5
20260505212056 11 180 0.0 0.0 0.05 1.02 0.00 89 1003.8
20260505211556 10 180 0.0 0.0 0.05 1.02 0.00 89 1003.6
20260505211055 10 180 0.0 0.0 0.05 1.02 0.00 89 1003.7
20260505210555 10 180 0.0 0.0 0.05 1.02 0.00 89 1003.7
20260505205554 10 180 0.0 0.0 0.05 1.02 0.00 89 1003.7
20260505205054 10 180 0.0 0.0 0.05 1.02 0.00 89 1003.7
20260505204054 10 180 0.0 0.0 0.00 0.97 0.00 89 1003.7
20260505203553 10 180 0.0 0.0 0.00 0.97 0.00 89 1003.8
20260505203053 10 180 0.0 0.0 0.00 0.97 0.00 89 1003.8
20260505202553 10 180 0.0 0.0 0.00 0.97 0.00 89 1003.8
20260505202053 10 180 0.0 0.0 0.00 0.97 0.00 89 1003.7
20260505201052 11 180 0.0 0.0 0.00 0.97 0.00 89 1003.7
20260505200552 11 180 0.0 0.0 0.00 0.97 0.00 89 1003.7
20260505200052 11 180 0.0 0.0 0.00 0.97 0.00 89 1003.7
20260505195551 11 180 0.0 0.0 0.00 0.97 0.00 89 1003.7
20260505194551 11 180 0.0 0.0 0.00 0.97 0.00 89 1003.8
20260505194050 11 180 0.0 0.0 0.00 0.97 0.00 89 1003.7
20260505193550 11 180 0.0 0.0 0.00 0.97 0.00 89 1003.7
20260505193050 11 180 0.0 0.0 0.00 0.97 0.00 89 1003.8
20260505192550 11 180 0.0 0.0 0.00 0.97 0.00 89 1003.8
20260505192049 11 180 0.0 0.0 0.00 0.97 0.00 89 1003.8
20260505191549 11 180 0.0 0.0 0.05 0.97 0.00 89 1003.7
20260505191049 11 180 0.0 0.0 0.05 0.97 0.00 89 1003.7
20260505190548 11 180 0.0 0.0 0.05 0.97 0.00 89 1003.6
20260505190048 11 180 0.0 0.0 0.05 0.97 0.00 89 1003.6
20260505185548 11 180 0.0 0.0 0.05 0.97 0.00 89 1003.5
20260505185048 11 180 0.0 0.0 0.05 0.97 0.00 89 1003.6
20260505184547 11 180 0.0 0.0 0.05 0.97 0.00 88 1003.7
20260505184047 11 180 0.0 0.0 0.05 0.97 0.00 88 1003.8
20260505183547 11 180 0.0 0.0 0.05 0.97 0.00 88 1003.8
20260505183047 11 180 0.0 0.0 0.05 0.97 0.00 88 1003.6
20260505182546 11 180 0.0 0.0 0.05 0.97 0.00 88 1003.7
20260505182046 11 180 0.0 0.0 0.05 0.91 0.00 88 1003.7
20260505181546 11 202 0.0 0.0 0.05 0.91 0.00 88 1003.7
20260505181045 11 202 0.0 0.0 0.05 0.91 0.00 88 1003.8
20260505180545 12 202 0.0 0.0 0.05 0.91 0.00 88 1003.8
20260505180045 12 202 0.0 0.0 0.05 0.91 0.00 88 1003.8
20260505175544 12 225 0.0 0.0 0.10 0.91 0.00 87 1003.7
20260505175044 12 225 0.0 0.0 0.10 0.91 0.00 87 1003.7
20260505174544 12 225 0.0 0.0 0.10 0.91 0.00 87 1003.7
20260505174044 12 202 0.0 0.0 0.10 0.91 0.00 87 1003.8
20260505173543 12 180 0.0 0.0 0.10 0.91 0.00 87 1003.8
20260505173043 12 180 0.0 0.0 0.10 0.91 0.00 87 1003.9
20260505172543 12 180 0.0 0.0 0.05 0.86 0.00 87 1003.8
20260505172042 12 180 0.0 0.0 0.05 0.86 0.00 87 1003.8
20260505171542 12 180 0.0 0.0 0.05 0.86 0.00 87 1003.9
20260505171042 12 180 0.0 0.0 0.05 0.86 0.00 86 1003.8
20260505170542 12 202 0.0 0.0 0.05 0.86 0.00 86 1003.8
20260505170041 12 180 0.0 0.0 0.05 0.86 0.00 86 1003.8
20260505165541 12 180 0.0 0.0 0.00 0.86 0.00 86 1003.8
20260505165041 13 180 0.0 0.0 0.00 0.86 0.00 86 1003.8
20260505164541 13 180 0.0 0.0 0.00 0.86 0.00 86 1003.9
20260505164040 13 180 0.0 0.0 0.00 0.86 0.00 86 1004.0
20260505163040 13 180 0.0 0.0 0.00 0.86 0.00 86 1003.9
20260505162539 13 180 0.0 0.0 0.00 0.86 0.00 87 1004.0
20260505162039 13 157 0.0 0.0 0.00 0.86 0.00 87 1004.0
20260505161539 13 157 0.0 0.0 0.05 0.86 0.00 87 1003.9
20260505160538 13 180 0.0 0.0 0.05 0.86 0.00 87 1003.9
20260505153036 12 202 0.0 0.0 0.15 0.91 0.00 88 1004.2
20260505152541 12 157 0.0 0.0 0.20 0.91 0.00 88 1004.2
20260505152536 12 157 0.0 0.0 0.20 0.91 0.00 88 1004.2
20260505152036 12 180 0.0 0.0 0.20 0.91 0.00 88 1004.2
20260505151535 12 180 0.0 0.0 0.15 0.86 0.00 88 1004.2
20260505151035 12 180 0.0 0.0 0.20 0.86 0.00 88 1004.3
20260505150535 12 202 0.0 0.0 0.20 0.86 0.00 87 1004.3
20260505140531 13 180 0.0 0.0 0.46 0.66 0.00 85 1004.6